{"data":{"norad_id":61932,"epoch":"2026-09-21T08:38:52.640736Z","epoch_age_seconds":111300,"freshness":"FRESH","line1":"1 61932U 24207W   26264.36033149  .00009784  00000+0  36440-3 0  9992","line2":"2 61932  42.9997 260.4740 0001279 255.3975 104.6735 15.27595908105093","mean_motion":15.27595908,"eccentricity":0.0001279,"inclination_deg":42.9997,"raan_deg":260.474,"arg_perigee_deg":255.3975,"mean_anomaly_deg":104.6735,"bstar":0.0003644,"rev_number":10509,"period_min":94.265767043414,"perigee_km":482.12392256884,"apogee_km":483.87900178747,"semimajor_km":6861.1384621782,"source":"CELESTRAK","updated_at":"2026-09-22T09:00:49.452715Z"}}